STARLINK-32412, 61680

Orbit data source: Space-Track

STARLINK-32412, 61680 is a payload satellite owned by SpaceX/Seattle (US) in LEO that was launched on Sat, 26 Oct 2024 UTC via an FALCON 9 launch vehicle from the Air Force Eastern Test Range (AFETR). Payload-class satellites include a variety of spacecraft equipped with specific instruments for various scientific and technological missions. These include communications satellites like Starlink; space stations such as the ISS; scientific satellites like the Hubble; Earth observation satellites from companies like Planet Labs, Umbra, and HawkEye 360; GPS; miniature CubeSats for education and research; and military/defense satellites.

Loading next visibility...
Identifier
61680, 2024-193V
Orbit
LEO
Country
Flag of USUS
Related business
Manufacturer
SpaceX/Seattle
Mission
Operational Commercial Communications
Bus & Motor
STARLINK V2M, Unknown motor
Mass
730 kg wet, ~700 kg dry
Launch date (UTC)
2024-10-26 (1 year ago)
Launch vehicle
FALCON 9
Launch site
Air Force Eastern Test Range (AFETR)
Object type
Payload
Rocket body
Debris
Shape & HBR
Box + 2 Pan, 17.7 m
Radar Cross Section
33.884 m², Large (>1 m²)

Expand to show TLE details & history
Last TLE update: 13 hours ago

TLE from 13 hours ago
0 STARLINK-32412
1 61680U 24193V   25293.46320791  .00000866  00000-0  41409-4 0  9995
2 61680  53.1630  22.6046 0001754 102.7428 257.3769 15.30179592 55058
Epoch: 2025-10-20T11:07Z
TLE epoch observation values (Epoch: 2025-10-20T11:07:01.163Z)
Latitude
-0.00001°
Longitude
-173.31541°
Altitude
476.439 km
Speed
7.629 km/s
True Right ascension
01h 30m 25s
True Declination
0° 00' 00"
Sunlit
Object was in full shadow at epoch
Visualization orbit readout
Latitude
Unknown
Longitude
Unknown
Altitude
Unknown
Speed
Unknown
Apparent Right ascension
Unknown
Apparent Declination
Unknown
Sunlit
N/A
Visualization observer readout
Local Sidereal Time
19:26:53
Azimuth
Unknown
Elevation
Unknown
Doppler factor
Unknown
Orbital elements
Apogee altitude
476.734 km
Perigee altitude
474.33 km
Semi-major axis
6,853.669 km
Eccentricity
0.00018
Inclination
53.163°
RAAN
22.6046°
Arg. of periapsis
102.7428°
True anomaly
257.35729°
Mean anomaly
257.3769°
Eccentric anomaly
257.36709°
Mean motion
3.82524 °/min
Orbital period
94.11 mins
BSTAR
0.000041409
Loading maneuver chart data...
Computing Atmospheric mass density...
Loading historical data...
Loading historical data...
Loading historical data...
Loading historical data...
Loading historical data...
Loading historical data...
Loading historical data...

Documentation

Showing up to 5 results
|